Location: Unspecified
(0.0000°N, 0.0000°E)
Time: 16:28:40
(UTC+00:00)

CZ-3C DEB - Pass Details

Date: 14 March 2026
Orbit: 403 x 27666 km, 19.3° (Epoch: 17 April)

Event Time Altitude Azimuth Distance (km) Brightness Sun altitude
Rises 20:23:43 0° 284° (WNW) 12,207 ? -33.6°
Reaches altitude 10° 20:31:58 10° 287° (WNW) 13,180 ? -35.7°
Enters shadow 01:57:40 40° 288° (WNW) 22,222 ? -62.8°
Exits shadow 03:06:19 57° 270° (W) 9,729 ? -45.6°
Maximum altitude 03:23:16 72° 208° (SSW) 5,329 ? -41.4°
Drops below altitude 10° 03:37:34 10° 122° (ESE) 4,333 ? -37.8°
Sets 03:39:25 0° 120° (ESE) 4,754 ? -37.4°
